User: anonymous
Location: Unspecified
(0.0000°N, 0.0000°E)
Time: 17:20:39
(UTC+00:00)
Language:

KORONAS-FOTON - Orbit

View from above orbital plane
View from above orbital plane
View from above satellite
View from above satellite

Ground track
Ground track

The orbit data is extracted from the following two-line orbital elements,

1 33504U 09003A   14234.97150759  .00001384  00000-0  80918-4 0  1093
2 33504 082.4492 173.6684 0022020 062.5645 342.9471 15.10880108305803
Epoch (UTC): 22 August 2014 23:18:58
Eccentricity: 0.0022020
inclination: 82.4492°
perigee height: 518 km
apogee height: 549 km
right ascension of ascending node: 173.6684°
argument of perigee: 62.5645°
revolutions per day: 15.10880108
mean anomaly at epoch: 342.9471°
orbit number at epoch: 30580

The dashed part of the orbit path shows where the satellite is in the earth's shadow,  

DLR